[[{"header":{"parameterUnit":"m.s-1","parameterCategory":1,"la1":30.2991,"la2":30.254,"lo1":-89.0895,"lo2":-89.0444,"dy":0.0017,"dx":0.0017,"nx":28,"ny":28,"refTime":"2024-08-29T09:00:00:Z","depth":0,"parameterNumber":2,"parameterNumberName":"U-component_of_WINDS"},"data":[0,0,0,0,0,0,0,0,0,0,0,0,0,0,0,0,0,0,0,0,0,0,0,0,0,0,0,0,0,0,0,0,0,0,0,0,0,0,0,0,0,0,0,0,0,0,0,0,0,0,0,0,0,0,0,0,0,0,-5.7016,-5.7016,0,-5.6985,-5.6985,-5.6984,-5.6839,-5.6835,-5.6832,-5.6828,-5.6798,-5.6801,-5.6803,0,0,0,0,0,0,0,0,0,0,0,0,0,-5.6953,-5.6955,-5.7016,-5.7016,-5.7016,-5.6985,-5.6985,-5.6984,-5.6839,-5.6835,-5.6831,-5.6827,-5.6797,-5.68,-5.6803,0,0,0,0,0,0,0,0,0,0,0,0,0,-5.6957,-5.6956,-5.7017,-5.6939,-5.6932,-5.6985,-5.6985,-5.6984,-5.684,-5.6835,-5.683,-5.6825,-5.6797,-5.68,-5.6804,-5.6929,0,0,-5.6815,-5.6816,0,0,0,0,0,0,0,0,-5.6957,-5.696,-5.6951,-5.6945,-5.6937,-5.691,-5.6951,-5.6966,-5.6841,-5.6875,-5.6828,-5.6822,-5.684,-5.684,-5.6845,-5.6927,-5.6926,-5.6815,-5.6817,-5.6819,-5.682,0,0,0,0,0,0,0,-5.6957,-5.696,-5.7004,-5.6951,-5.6943,-5.6907,-5.6902,-5.6953,-5.6887,-5.6872,-5.6861,-5.6859,-5.6835,-5.6842,-5.6843,-5.6926,-5.6815,-5.6818,-5.682,-5.6822,-5.7112,-5.7117,0,0,0,0,0,0,-5.6967,-5.6961,-5.7005,-5.7003,-5.6935,-5.6913,-5.6907,-5.6924,-5.6886,-5.6875,-5.6864,-5.6853,-5.6838,-5.6839,-5.6842,-5.6987,-5.6819,-5.6822,-5.6824,-5.7106,-5.7113,-5.7119,0,0,0,0,0,0,-5.6967,-5.6973,-5.7006,-5.6979,-5.6981,-5.6919,-5.694,-5.6926,-5.6933,-5.688,-5.6867,-5.6883,-5.6834,-5.6837,-5.6909,-5.6984,-5.6824,-5.6827,-5.71,-5.7108,-5.7116,-5.7278,0,0,0,0,0,0,-5.6965,-5.6973,-5.7019,-5.6981,-5.6983,-5.7073,-5.6944,-5.6929,-5.6939,-5.6925,-5.6894,-5.6885,-5.683,-5.6904,-5.6912,-5.6986,-5.683,-5.7092,-5.7103,-5.7113,-5.7266,-5.7291,-5.7312,0,0,0,0,0,-5.6964,-5.7066,-5.7022,-5.7029,-5.7039,-5.7078,-5.7079,-5.7014,-5.6946,-5.6992,-5.6959,-5.6885,-5.6975,-5.6913,-5.6921,-5.6996,-5.7087,-5.71,-5.7112,-5.7255,-5.7286,-5.7312,0,0,0,0,0,0,-5.7114,-5.706,-5.701,-5.7104,-5.7097,-5.7053,-5.7109,-5.7048,-5.706,-5.7046,-5.6966,-5.696,-5.7045,-5.7027,-5.696,-5.7117,-5.7019,-5.7033,-5.7125,-5.7153,-5.7176,-5.7179,-5.6833,0,0,0,0,0,-5.7159,-5.7194,-5.7144,-5.7232,-5.7231,-5.7172,-5.7186,-5.7137,-5.7126,-5.7122,-5.7093,-5.7087,-5.7113,-5.7132,-5.7154,-5.7263,-5.7255,-5.7319,-5.7343,-5.7362,-5.7376,-5.7434,-5.7462,-5.716,-5.716,-5.7159,0,0,-5.725,-5.7224,-5.7252,-5.7261,-5.725,-5.729,-5.717,-5.7216,-5.7245,-5.7129,-5.7196,-5.7175,-5.7162,-5.7254,-5.7293,-5.7243,-5.7458,-5.7378,-5.7394,-5.7397,-5.745,-5.7478,-5.7504,-5.7168,-5.7167,-5.7165,0,0,-5.7437,-5.7421,-5.7492,-5.7484,-5.7468,-5.7429,-5.7446,-5.7413,-5.7394,-5.746,-5.7375,-5.7409,-5.7455,-5.745,-5.7454,-5.7643,-5.7576,-5.7652,-5.7774,-5.7831,-5.7855,-5.7876,-5.7944,-5.7969,-5.7666,-5.7666,-5.7666,0,-5.7552,-5.7607,-5.7537,-5.7589,-5.7597,-5.7495,-5.7567,-5.7563,-5.7556,-5.7564,-5.7507,-5.7565,-5.755,-5.764,-5.7686,-5.7692,-5.7711,-5.7654,-5.7857,-5.7878,-5.7896,-5.796,-5.7986,-5.7675,-5.7674,-5.7673,-5.7672,0,-5.7751,-5.7791,-5.7851,-5.7847,-5.7861,-5.7924,-5.7864,-5.7887,-5.7838,-5.7805,-5.7874,-5.7852,-5.7867,-5.7885,-5.7837,-5.7969,-5.7939,-5.7872,-5.7771,-5.7935,-5.7994,-5.8018,-5.7689,-5.7685,-5.7683,-5.768,0,0,-5.803,-5.7988,-5.8011,-5.8009,-5.7985,-5.8015,-5.8075,-5.809,-5.8112,-5.8112,-5.816,-5.8203,-5.8141,-5.8146,-5.8097,-5.8147,-5.83,-5.8074,-5.8072,-5.8117,-5.8446,-5.8497,-5.8526,-5.8256,-5.826,-5.8264,-5.8447,0,-5.8209,-5.8306,-5.8245,-5.8352,-5.839,-5.8295,-5.8346,-5.8339,-5.831,-5.8338,-5.8307,-5.8339,-5.8254,-5.8257,-5.8303,-5.8272,-5.8365,-5.8257,-5.8301,-5.8303,-5.8307,-5.8556,-5.861,-5.8783,-5.8469,-5.8473,-5.8476,0,-5.8429,-5.8439,-5.8551,-5.8522,-5.8535,-5.8583,-5.8593,-5.8621,-5.8611,-5.8587,-5.8594,-5.8533,-5.859,-5.8492,-5.8571,-5.8499,-5.8514,-5.8502,-5.8507,-5.8508,-5.8399,-5.8565,-5.8837,-5.8863,-5.8511,-5.8509,-5.8506,0,-5.8623,-5.8664,-5.8736,-5.8737,-5.8705,-5.8741,-5.873,-5.8715,-5.8729,-5.8739,-5.8747,-5.8764,-5.8773,-5.8788,-5.8734,-5.8667,-5.882,-5.8717,-5.8803,-5.8805,-5.8838,-5.8837,-5.9117,-5.8849,-5.8848,-5.8848,-5.8847,0,-5.8829,-5.8901,-5.8822,-5.8867,-5.8946,-5.8876,-5.8956,-5.8935,-5.8923,-5.8962,-5.8882,-5.8921,-5.8847,-5.8879,-5.8837,-5.891,-5.8914,-5.8897,-5.8885,-5.8904,-5.8907,-5.8912,-5.8899,-5.8855,-5.8853,-5.8852,-5.8851,0,-5.9057,-5.9008,-5.908,-5.9045,-5.9038,-5.9098,-5.9068,-5.9109,-5.9075,-5.9127,-5.9135,-5.9083,-5.9117,-5.9065,-5.9093,-5.9065,-5.9165,-5.9134,-5.9168,-5.9159,-5.9248,-5.9241,-5.9541,-5.9578,-5.9286,-5.9289,-5.9292,0,-5.9192,-5.9245,-5.9217,-5.9237,-5.9231,-5.9265,-5.9279,-5.9214,-5.9232,-5.9227,-5.9269,-5.9296,-5.9314,-5.9373,-5.9338,-5.936,-5.9329,-5.9433,-5.9332,-5.935,-5.9331,-5.9329,-5.9335,-5.9454,-5.9458,-5.946,-5.9463,0,-5.9436,-5.941,-5.9433,-5.9449,-5.9469,-5.9478,-5.9481,-5.9503,-5.9434,-5.946,-5.9493,-5.9508,-5.9537,-5.9565,-5.9579,-5.9567,-5.9505,-5.9495,-5.9516,-5.9536,-5.9554,-5.9546,-5.9225,-5.9488,-5.9486,-5.9484,-5.9482,-5.9481,-5.9622,-5.9666,-5.9653,-5.9682,-5.9678,-5.9684,-5.9721,-5.9693,-5.972,-5.9738,-5.9698,-5.9743,-5.9734,-5.9745,-5.9741,-5.9776,-5.973,-5.976,-5.9768,-5.9777,-5.9791,-5.9549,-5.9778,-5.9777,-5.9776,-5.9776,-5.9775,0,-5.9862,-5.985,-5.9878,-5.9886,-5.991,-5.9849,-5.985,-5.9874,-5.9914,-5.9911,-5.9931,-5.9971,-5.9999,-5.9968,-5.999,-6.0024,-5.9996,-6.0032,-6.0029,-6.0028,-5.983,-5.981,-6.0055,-6.0055,-6.0054,-6.0054,-6.0054,-6.0054,-5.999,-6.0062,-6.0034,-6.0104,-6.009,-6.0133,-6.0139,-6.0145,-6.0142,-6.019,-6.0213,-6.0193,-6.0179,-6.02,-6.0224,-6.0214,-6.0226,-6.0273,-6.0253,-6.0069,-6.0041,-6.0015,-5.9996,-6.0276,-6.0276,-6.0448,-6.045,-6.0451]},{"header":{"parameterUnit":"m.s-1","parameterCategory":1,"la1":30.2991,"la2":30.254,"lo1":-89.0895,"lo2":-89.0444,"dy":0.0017,"dx":0.0017,"nx":28,"ny":28,"refTime":"2024-08-29T09:00:00:Z","depth":0,"parameterNumber":3,"parameterNumberName":"V-component_of_WINDS"},"data":[0,0,0,0,0,0,0,0,0,0,0,0,0,0,0,0,0,0,0,0,0,0,0,0,0,0,0,0,0,0,0,0,0,0,0,0,0,0,0,0,0,0,0,0,0,0,0,0,0,0,0,0,0,0,0,0,0,0,-0.1825,-0.1826,0,-0.1906,-0.1907,-0.1908,-0.1943,-0.1943,-0.1943,-0.1943,-0.2026,-0.2029,-0.2031,0,0,0,0,0,0,0,0,0,0,0,0,0,-0.1701,-0.1703,-0.1825,-0.1826,-0.1827,-0.1906,-0.1907,-0.1908,-0.1943,-0.1943,-0.1943,-0.1943,-0.2026,-0.2028,-0.2031,0,0,0,0,0,0,0,0,0,0,0,0,0,-0.1765,-0.1703,-0.1825,-0.1854,-0.1858,-0.1906,-0.1907,-0.1909,-0.1943,-0.1943,-0.1943,-0.1943,-0.2025,-0.2028,-0.2032,-0.2057,0,0,-0.2042,-0.2044,0,0,0,0,0,0,0,0,-0.1762,-0.177,-0.1849,-0.1852,-0.1856,-0.1914,-0.1894,-0.1958,-0.1943,-0.1911,-0.1943,-0.1942,-0.1989,-0.1996,-0.2011,-0.2061,-0.2065,-0.2043,-0.2045,-0.2046,-0.2047,0,0,0,0,0,0,0,-0.1757,-0.1767,-0.1857,-0.185,-0.1854,-0.1863,-0.1872,-0.1906,-0.195,-0.1913,-0.1916,-0.1925,-0.1991,-0.2008,-0.2014,-0.2066,-0.2043,-0.2046,-0.2048,-0.2049,-0.2139,-0.214,0,0,0,0,0,0,-0.1748,-0.1763,-0.1855,-0.186,-0.1807,-0.1865,-0.1875,-0.1896,-0.195,-0.1958,-0.1925,-0.1927,-0.2002,-0.2009,-0.2017,-0.205,-0.2046,-0.205,-0.2052,-0.2139,-0.2139,-0.214,0,0,0,0,0,0,-0.1745,-0.1756,-0.1852,-0.1812,-0.1825,-0.1868,-0.189,-0.1898,-0.1914,-0.1959,-0.1967,-0.1934,-0.2002,-0.2012,-0.2046,-0.2053,-0.2051,-0.2054,-0.2139,-0.2139,-0.2139,-0.2116,0,0,0,0,0,0,-0.1741,-0.1754,-0.1765,-0.1812,-0.1827,-0.188,-0.1891,-0.1899,-0.192,-0.1923,-0.1969,-0.1977,-0.2003,-0.2041,-0.205,-0.2058,-0.2057,-0.2138,-0.2139,-0.2139,-0.2116,-0.2115,-0.2115,0,0,0,0,0,-0.1737,-0.1756,-0.1765,-0.1776,-0.1841,-0.188,-0.1889,-0.1918,-0.1921,-0.1931,-0.1959,-0.1975,-0.205,-0.2044,-0.2055,-0.2064,-0.2138,-0.2139,-0.2139,-0.2117,-0.2116,-0.2115,0,0,0,0,0,0,-0.1709,-0.1762,-0.1774,-0.1808,-0.1839,-0.1886,-0.1901,-0.1916,-0.1948,-0.1949,-0.1983,-0.1994,-0.2025,-0.2048,-0.204,-0.209,-0.2096,-0.2098,-0.2075,-0.2074,-0.2073,-0.2067,-0.206,0,0,0,0,0,-0.1707,-0.1735,-0.178,-0.1806,-0.1821,-0.1858,-0.1876,-0.1896,-0.193,-0.1943,-0.1974,-0.2006,-0.2037,-0.2057,-0.2088,-0.2119,-0.213,-0.213,-0.2129,-0.2129,-0.2131,-0.2148,-0.2149,-0.2142,-0.2142,-0.2142,0,0,-0.1703,-0.1736,-0.1751,-0.1801,-0.1828,-0.1855,-0.1869,-0.1898,-0.1919,-0.1948,-0.1982,-0.2006,-0.2044,-0.2077,-0.2093,-0.2097,-0.2135,-0.2129,-0.2128,-0.2131,-0.2149,-0.2149,-0.215,-0.2142,-0.2142,-0.2142,0,0,-0.171,-0.1738,-0.1762,-0.1788,-0.1827,-0.1851,-0.1857,-0.1901,-0.1918,-0.1953,-0.1974,-0.1999,-0.2052,-0.2078,-0.2098,-0.2112,-0.2128,-0.2121,-0.2117,-0.2134,-0.2134,-0.2135,-0.214,-0.2141,-0.2123,-0.2123,-0.2123,0,-0.1701,-0.1743,-0.1773,-0.18,-0.1821,-0.1847,-0.1872,-0.1895,-0.1943,-0.1957,-0.196,-0.2025,-0.2053,-0.2092,-0.2095,-0.2111,-0.2118,-0.2117,-0.2132,-0.2133,-0.2134,-0.2139,-0.214,-0.2122,-0.2122,-0.2122,-0.2122,0,-0.1729,-0.1758,-0.1773,-0.1817,-0.184,-0.1866,-0.1899,-0.1918,-0.1934,-0.1958,-0.1993,-0.2026,-0.2064,-0.2074,-0.2092,-0.2115,-0.2116,-0.2125,-0.2131,-0.2133,-0.2138,-0.214,-0.212,-0.2121,-0.2121,-0.2121,0,0,-0.1723,-0.1782,-0.1787,-0.1806,-0.1851,-0.1874,-0.19,-0.1936,-0.1952,-0.1983,-0.2006,-0.2048,-0.2056,-0.2079,-0.2099,-0.2113,-0.2121,-0.212,-0.2122,-0.2119,-0.2149,-0.2142,-0.2144,-0.2131,-0.2132,-0.2132,-0.2145,0,-0.1736,-0.1785,-0.1811,-0.1848,-0.1875,-0.1899,-0.1922,-0.1951,-0.1973,-0.1999,-0.2023,-0.2053,-0.2062,-0.2075,-0.209,-0.2117,-0.2128,-0.2117,-0.2153,-0.2154,-0.2143,-0.2146,-0.214,-0.215,-0.2148,-0.2148,-0.2148,0,-0.1759,-0.1788,-0.1828,-0.1868,-0.188,-0.19,-0.1934,-0.1959,-0.1992,-0.2007,-0.2031,-0.205,-0.2078,-0.2081,-0.212,-0.2112,-0.2128,-0.2143,-0.2144,-0.2149,-0.2152,-0.2151,-0.2155,-0.2156,-0.2152,-0.2151,-0.2151,0,-0.175,-0.18,-0.183,-0.1846,-0.1893,-0.1906,-0.1927,-0.196,-0.1979,-0.2009,-0.2022,-0.2054,-0.2072,-0.2097,-0.2124,-0.2124,-0.216,-0.2166,-0.2173,-0.2172,-0.2181,-0.218,-0.2187,-0.219,-0.219,-0.219,-0.219,0,-0.1762,-0.1785,-0.1826,-0.1845,-0.1871,-0.19,-0.1925,-0.1948,-0.1976,-0.1999,-0.2022,-0.2043,-0.2077,-0.2102,-0.2124,-0.2152,-0.216,-0.2173,-0.2178,-0.2171,-0.2169,-0.2183,-0.2183,-0.2191,-0.2191,-0.2191,-0.219,0,-0.1757,-0.1785,-0.1819,-0.1861,-0.1871,-0.1889,-0.1924,-0.1942,-0.1965,-0.1993,-0.2002,-0.2037,-0.2068,-0.2097,-0.2138,-0.2152,-0.218,-0.2188,-0.2169,-0.2172,-0.2178,-0.2177,-0.2194,-0.2197,-0.2198,-0.2198,-0.2198,0,-0.1763,-0.1781,-0.1824,-0.184,-0.186,-0.1887,-0.1906,-0.1935,-0.1954,-0.1992,-0.2006,-0.2038,-0.2065,-0.2112,-0.2141,-0.2173,-0.2181,-0.2184,-0.2186,-0.2177,-0.2181,-0.2179,-0.2181,-0.2184,-0.2184,-0.2184,-0.2183,0,-0.1771,-0.1783,-0.1811,-0.1842,-0.1864,-0.1891,-0.1918,-0.193,-0.1964,-0.1984,-0.2015,-0.2036,-0.2077,-0.2108,-0.2142,-0.2163,-0.2179,-0.2182,-0.2186,-0.2179,-0.2167,-0.2173,-0.2167,-0.2182,-0.2182,-0.2182,-0.2183,-0.2183,-0.1772,-0.1789,-0.1821,-0.185,-0.1873,-0.1897,-0.1916,-0.194,-0.1966,-0.2001,-0.2017,-0.2048,-0.2079,-0.2126,-0.2146,-0.2171,-0.2175,-0.218,-0.2181,-0.2182,-0.218,-0.2163,-0.2177,-0.2177,-0.2177,-0.2177,-0.2177,0,-0.1781,-0.1802,-0.1828,-0.1865,-0.1887,-0.1899,-0.1929,-0.1947,-0.1974,-0.2001,-0.2027,-0.2062,-0.2091,-0.2122,-0.2153,-0.2167,-0.2175,-0.2174,-0.2174,-0.2178,-0.2175,-0.2169,-0.2167,-0.2167,-0.2167,-0.2167,-0.2167,-0.2167,-0.1788,-0.1816,-0.1832,-0.1872,-0.1894,-0.1924,-0.194,-0.1962,-0.1984,-0.2021,-0.2046,-0.2065,-0.2094,-0.2127,-0.2155,-0.2163,-0.2174,-0.2171,-0.2181,-0.2178,-0.2178,-0.2179,-0.2173,-0.2173,-0.2173,-0.2182,-0.2182,-0.2182]}]]